Location: Hermaringen
(48.5952°N, 10.2585°E)
Time: 01:24:03
(UTC+00:00)

Altair - Pass Details

Date: 20 February 2026
Orbit: 1502 x 1682 km, 47.2° (Epoch: 10 March)

Event Time Altitude Azimuth Distance (km) Brightness Sun altitude
Rises 10:24:20 0° 289° (WNW) 4,732 9.7 28.7°
Reaches altitude 10° 10:27:57 10° 278° (W) 3,773 9.4 28.9°
Maximum altitude 10:35:26 27° 226° (SW) 2,732 9.4 29.2°
Drops below altitude 10° 10:43:08 10° 174° (S) 3,872 11.2 29.6°
Sets 10:46:57 0° 163° (SSE) 4,879 11.3 29.7°
